Change the Weather History Date:

Wednesday, January 1, 2014

  Actual Average Record
Temperature  
Mean Temperature 77 °F -  
Max Temperature 81 °F 78 °F 90 °F (1990)
Min Temperature 73 °F 60 °F 34 °F (1949)
Cooling Degree Days 12    
Growing Degree Days 27 (Base 50)    
Moisture  
Dew Point 71 °F    
Average Humidity 82    
Maximum Humidity 94    
Minimum Humidity 69    
Precipitation  
Precipitation 0.15 in - - ()
Sea Level Pressure  
Sea Level Pressure 30.13 in    
Wind  
Wind Speed 12 mph (ESE)    
Max Wind Speed 17 mph    
Max Gust Speed 23 mph    
Visibility 10 miles    
Events Rain    
Averages and records for this station are not official NWS values.
T = Trace of Precipitation, MM = Missing Value Source: NWS Daily Summary

Daily Weather History Graph

Daily Weather History Graph

Search for Another Location

Airport or City:

Trip Planner

Search our weather history database for the weather conditions in past years. The results will help you decide how hot, cold, wet, or windy it might be!

Date:

Astronomy

Jan. 01, 2014 Rise Set
Actual Time 7:08 AM EST 5:40 PM EST
Civil Twilight 6:43 AM EST 6:05 PM EST
Nautical Twilight 6:14 AM EST 6:34 PM EST
Astronomical Twilight 5:46 AM EST 7:02 PM EST
Moon 7:03 AM EST (1/1) 6:16 PM EST (1/1)
Length of Visible Light 11h 22m
Length of Day
10h 32m
New Moon, 0% of the Moon is Illuminated
Jan 1
New Moon
Jan 7
First Quarter
Jan 15
Full
Jan 24
Last Quarter
Jan 30
New

Hourly Weather History & Observations

Time (EST) Temp. Heat Index Dew Point Humidity Pressure Visibility Wind Dir Wind Speed Gust Speed Precip Events Conditions
12:44 AM 75.2 °F - 64.4 °F 69% 30.18 in 10.0 mi ENE 12.7 mph - N/A   Overcast
12:53 AM 75.0 °F - 64.9 °F 71% 30.19 in 10.0 mi ENE 9.2 mph 18.4 mph N/A   Scattered Clouds
1:00 AM 75.2 °F - 64.4 °F 69% 30.18 in 10.0 mi ENE 12.7 mph - N/A   Overcast
1:53 AM 75.0 °F - 64.9 °F 71% 30.18 in 10.0 mi ENE 13.8 mph - N/A   Overcast
2:53 AM 75.0 °F - 66.9 °F 76% 30.17 in 10.0 mi ENE 15.0 mph - N/A   Overcast
3:53 AM 75.0 °F - 68.0 °F 79% 30.15 in 10.0 mi East 16.1 mph 20.7 mph 0.00 in Rain Light Rain
4:06 AM 75.2 °F - 68.0 °F 78% 30.14 in 10.0 mi East 16.1 mph - 0.00 in Rain Light Rain
4:53 AM 75.0 °F - 68.0 °F 79% 30.14 in 10.0 mi East 12.7 mph - 0.00 in   Overcast
5:19 AM 75.2 °F - 68.0 °F 78% 30.14 in 10.0 mi East 15.0 mph - N/A   Overcast
5:53 AM 75.9 °F - 69.1 °F 79% 30.15 in 10.0 mi East 13.8 mph - N/A   Overcast
6:30 AM 75.2 °F - 69.8 °F 83% 30.15 in 10.0 mi East 12.7 mph - 0.00 in   Overcast
6:53 AM 75.0 °F - 70.0 °F 84% 30.17 in 10.0 mi East 12.7 mph - 0.00 in Rain Light Rain
7:53 AM 73.9 °F - 72.0 °F 93% 30.18 in 10.0 mi East 8.1 mph - 0.00 in   Overcast
8:15 AM 73.4 °F - 71.6 °F 94% 30.18 in 10.0 mi ENE 8.1 mph - 0.01 in Rain Light Rain
8:53 AM 75.9 °F - 72.0 °F 87% 30.19 in 10.0 mi East 11.5 mph - 0.01 in   Overcast
9:02 AM 75.2 °F - 71.6 °F 89% 30.19 in 7.0 mi East 10.4 mph - 0.00 in Rain Light Rain
9:53 AM 77.0 °F - 73.0 °F 88% 30.20 in 10.0 mi East 13.8 mph - 0.01 in   Mostly Cloudy
10:53 AM 80.1 °F 84.2 °F 73.0 °F 79% 30.19 in 10.0 mi ESE 15.0 mph - 0.00 in   Mostly Cloudy
11:53 AM 80.1 °F 83.8 °F 72.0 °F 76% 30.16 in 10.0 mi ESE 13.8 mph - N/A   Scattered Clouds
12:53 PM 81.0 °F 85.2 °F 72.0 °F 74% 30.13 in 10.0 mi ESE 15.0 mph 21.9 mph N/A   Scattered Clouds
1:53 PM 80.1 °F 83.8 °F 72.0 °F 76% 30.10 in 10.0 mi ESE 17.3 mph 20.7 mph N/A   Scattered Clouds
2:00 PM 80.6 °F 84.6 °F 71.6 °F 74% 30.09 in 10.0 mi ESE 16.1 mph 23.0 mph N/A   Overcast
2:16 PM 75.2 °F - 71.6 °F 89% 30.09 in 10.0 mi South 9.2 mph - 0.00 in   Mostly Cloudy
2:53 PM 77.0 °F - 73.0 °F 88% 30.09 in 7.0 mi SE 8.1 mph - 0.13 in   Mostly Cloudy
3:15 PM 78.8 °F - 73.4 °F 83% 30.08 in 10.0 mi ESE 12.7 mph - N/A   Mostly Cloudy
3:23 PM 78.8 °F - 71.6 °F 78% 30.08 in 10.0 mi SE 11.5 mph - N/A   Scattered Clouds
3:53 PM 78.1 °F - 72.0 °F 81% 30.09 in 10.0 mi SE 11.5 mph - N/A   Scattered Clouds
4:53 PM 78.1 °F - 72.0 °F 81% 30.08 in 10.0 mi SE 11.5 mph - N/A   Scattered Clouds
5:53 PM 77.0 °F - 73.0 °F 88% 30.08 in 10.0 mi SE 5.8 mph - N/A   Scattered Clouds
6:53 PM 75.9 °F - 72.0 °F 87% 30.09 in 10.0 mi SE 3.5 mph - N/A   Scattered Clouds
7:53 PM 75.9 °F - 72.0 °F 87% 30.09 in 10.0 mi SE 4.6 mph - N/A   Clear
8:53 PM 75.9 °F - 73.0 °F 91% 30.09 in 10.0 mi SE 5.8 mph - N/A   Scattered Clouds
9:53 PM 75.9 °F - 73.0 °F 91% 30.09 in 10.0 mi SE 5.8 mph - N/A   Scattered Clouds
10:53 PM 75.9 °F - 73.0 °F 91% 30.08 in 10.0 mi SE 6.9 mph - N/A   Scattered Clouds
11:53 PM 75.0 °F - 72.0 °F 90% 30.06 in 10.0 mi SSE 4.6 mph - N/A   Scattered Clouds